FW2982 Weather Reports


Display with metric or nautical units.
time (UTC)temp
F
wind
direction
speed
MPH
gust
MPH
rain 1hr
in
rain 24hr
in
rain mn
in
humidity
%
barometer
mb
20260906171641 84 72 3.0 4.0 0.00 0.02 0.01 56 1013.2
20260906171420 84 63 2.0 4.0 0.00 0.02 0.01 58 1013.3
20260906170642 84 63 2.0 4.0 0.00 0.02 0.01 58 1013.4
20260906170420 82 31 2.0 4.0 0.00 0.02 0.01 61 1013.4
20260906165641 84 48 2.0 6.0 0.00 0.02 0.01 56 1013.3
20260906165141 83 48 2.0 6.0 0.00 0.02 0.01 62 1013.4
20260906164918 83 39 1.0 5.0 0.00 0.02 0.01 60 1013.4
20260906164140 83 39 2.0 5.0 0.00 0.02 0.01 59 1013.3
20260906163640 83 0 1.0 5.0 0.00 0.02 0.01 59 1013.4
20260906163142 82 100 3.0 5.0 0.00 0.02 0.01 59 1013.4
20260906162922 83 52 3.0 5.0 0.00 0.02 0.01 58 1013.4
20260906162418 83 306 1.0 5.0 0.00 0.02 0.01 60 1013.5
20260906161640 82 51 2.0 4.0 0.00 0.02 0.01 59 1013.4
20260906161140 83 69 2.0 4.0 0.00 0.02 0.01 59 1013.5
20260906160640 83 56 1.0 6.0 0.00 0.02 0.01 59 1013.6
20260906160139 82 86 3.0 6.0 0.00 0.02 0.01 62 1013.6
20260906155639 82 54 1.0 6.0 0.00 0.02 0.01 59 1013.4
20260906155140 82 0 1.0 5.0 0.00 0.02 0.01 62 1013.6
20260906154640 82 58 1.0 5.0 0.00 0.02 0.01 61 1013.6
20260906154417 82 42 2.0 5.0 0.00 0.02 0.01 61 1013.6
20260906153639 82 82 1.0 9.0 0.00 0.02 0.01 62 1013.6
20260906153139 82 47 3.0 9.0 0.00 0.02 0.01 62 1013.6
20260906152638 81 69 3.0 5.0 0.00 0.02 0.01 61 1013.7
20260906152139 82 75 2.0 4.0 0.00 0.02 0.01 62 1013.7
20260906151639 82 45 1.0 4.0 0.00 0.02 0.01 65 1013.8
20260906151138 81 124 1.0 5.0 0.00 0.02 0.01 64 1013.6
20260906150640 81 290 2.0 5.0 0.00 0.02 0.01 63 1013.6
20260906150138 82 0 1.0 4.0 0.00 0.02 0.01 64 1013.6
20260906145638 81 47 2.0 6.0 0.00 0.02 0.01 64 1013.6
20260906145140 80 58 1.0 6.0 0.00 0.02 0.01 67 1013.5
20260906144638 81 71 1.0 4.0 0.00 0.02 0.01 64 1013.5
20260906144138 81 217 1.0 4.0 0.00 0.02 0.01 66 1013.4
20260906143638 78 72 1.0 4.0 0.00 0.02 0.01 69 1013.5
20260906143138 79 65 2.0 5.0 0.00 0.02 0.01 68 1013.5
20260906142637 79 48 3.0 5.0 0.00 0.02 0.01 68 1013.4
20260906142140 79 49 1.0 4.0 0.00 0.02 0.01 68 1013.4
20260906141637 78 41 2.0 4.0 0.00 0.02 0.01 71 1013.4
20260906141137 77 71 1.0 3.0 0.00 0.02 0.01 72 1013.5
20260906140917 76 66 2.0 6.0 0.00 0.02 0.01 71 1013.5
20260906140137 76 75 2.0 6.0 0.00 0.02 0.01 71 1013.4
20260906135638 76 51 2.0 4.0 0.00 0.02 0.01 73 1013.5
20260906135140 76 55 1.0 4.0 0.00 0.02 0.01 73 1013.4
20260906134637 76 51 2.0 4.0 0.00 0.02 0.01 73 1013.5
20260906134138 74 102 2.0 3.0 0.00 0.02 0.01 74 1013.5
20260906133639 74 75 2.0 5.0 0.00 0.02 0.01 75 1013.4
20260906133137 74 54 1.0 5.0 0.00 0.02 0.01 76 1013.5
20260906132636 73 75 1.0 4.0 0.00 0.02 0.01 76 1013.5
20260906132138 73 39 2.0 4.0 0.00 0.02 0.01 77 1013.5
20260906131636 73 80 2.0 4.0 0.00 0.02 0.01 76 1013.3
20260906131139 72 48 2.0 3.0 0.00 0.02 0.01 80 1013.3
20260906130637 72 48 1.0 3.0 0.00 0.02 0.01 81 1013.3
20260906130135 71 48 2.0 4.0 0.00 0.02 0.01 81 1013.3
20260906125637 70 51 2.0 4.0 0.00 0.02 0.01 82 1013.4
20260906125135 70 51 2.0 3.0 0.00 0.02 0.01 84 1013.3
20260906124636 69 58 2.0 3.0 0.00 0.02 0.01 86 1013.3
20260906124135 68 72 2.0 3.0 0.00 0.02 0.01 88 1013.3
20260906123637 67 80 0.0 3.0 0.00 0.02 0.01 90 1013.2
20260906123135 67 72 0.0 0.0 0.00 0.02 0.01 92 1013.2
20260906122635 66 72 0.0 0.0 0.00 0.02 0.01 93 1013.1
20260906122413 65 72 0.0 0.0 0.00 0.02 0.01 93 1013.1
20260906121636 65 72 0.0 0.0 0.00 0.02 0.01 94 1013.1
20260906121136 64 72 0.0 0.0 0.00 0.02 0.01 95 1013.0
20260906120636 64 72 0.0 0.0 0.00 0.02 0.01 95 1013.0
20260906120134 62 72 0.0 0.0 0.00 0.02 0.01 95 1012.9
20260906115912 62 72 0.0 0.0 0.00 0.02 0.01 95 1012.8
20260906115134 60 72 0.0 0.0 0.00 0.02 0.01 94 1012.7
20260906114634 60 72 0.0 0.0 0.00 0.02 0.01 94 1012.8
20260906114133 60 72 0.0 0.0 0.00 0.02 0.01 94 1012.6
20260906113634 60 72 0.0 0.0 0.00 0.02 0.01 94 1012.6
20260906113137 60 72 0.0 0.0 0.00 0.02 0.01 94 1012.6
20260906112634 60 72 0.0 0.0 0.00 0.02 0.01 94 1012.6
20260906112133 60 72 0.0 0.0 0.00 0.02 0.01 94 1012.5
20260906111633 60 72 0.0 0.0 0.00 0.02 0.01 94 1012.5
20260906111133 60 72 0.0 0.0 0.00 0.02 0.01 94 1012.5
20260906110635 60 72 0.0 0.0 0.00 0.02 0.01 94 1012.6
20260906110133 60 72 0.0 0.0 0.00 0.02 0.01 94 1012.5
20260906105634 60 72 0.0 0.0 0.00 0.02 0.01 94 1012.4
20260906105133 60 72 0.0 0.0 0.00 0.02 0.01 94 1012.4
20260906104634 60 72 0.0 0.0 0.00 0.02 0.01 94 1012.4
20260906104134 60 72 0.0 0.0 0.00 0.02 0.01 94 1012.1
20260906103632 61 72 0.0 0.0 0.00 0.02 0.01 94 1011.9
20260906103409 61 72 0.0 0.0 0.00 0.02 0.01 94 1011.7
20260906102910 61 72 0.0 0.0 0.00 0.02 0.01 94 1011.6
20260906102131 61 72 0.0 0.0 0.00 0.02 0.01 94 1011.7
20260906101632 61 72 0.0 0.0 0.00 0.02 0.01 94 1011.6
20260906101133 61 72 0.0 0.0 0.00 0.02 0.01 94 1011.6
20260906100632 61 72 0.0 0.0 0.00 0.02 0.01 93 1011.5
20260906100135 61 72 0.0 0.0 0.00 0.02 0.01 93 1011.4
20260906095631 61 72 0.0 0.0 0.00 0.02 0.01 93 1011.4
20260906095408 61 72 0.0 0.0 0.00 0.03 0.01 93 1011.4
20260906094631 61 72 0.0 0.0 0.00 0.03 0.01 94 1011.3
20260906094131 61 72 0.0 0.0 0.00 0.03 0.01 94 1011.3
20260906093631 61 72 0.0 0.0 0.00 0.03 0.01 94 1011.3
20260906093131 62 72 0.0 0.0 0.00 0.03 0.01 93 1011.3
20260906092632 62 72 0.0 0.0 0.00 0.03 0.01 93 1011.2
20260906092131 62 72 0.0 0.0 0.00 0.03 0.01 93 1011.2
20260906091630 62 72 0.0 0.0 0.00 0.03 0.01 93 1011.1
20260906091130 62 72 0.0 0.0 0.00 0.03 0.01 93 1010.9
20260906090630 62 72 0.0 0.0 0.00 0.03 0.01 94 1011.0
20260906090130 62 72 0.0 0.0 0.00 0.03 0.01 94 1011.0
20260906085631 62 72 0.0 0.0 0.00 0.03 0.01 94 1010.8
20260906085130 62 72 0.0 0.0 0.00 0.03 0.01 93 1010.9
20260906084909 62 72 0.0 0.0 0.00 0.03 0.01 93 1010.8
20260906084406 62 72 0.0 0.0 0.00 0.03 0.01 93 1010.7
20260906083628 62 72 0.0 0.0 0.00 0.03 0.01 93 1010.7
20260906083127 62 72 0.0 0.0 0.00 0.03 0.01 93 1010.7
20260906082904 62 72 0.0 0.0 0.00 0.03 0.01 93 1010.7
20260906082124 63 72 0.0 0.0 0.00 0.03 0.01 93 1010.8
20260906081857 63 72 0.0 0.0 0.00 0.03 0.01 94 1010.7
20260906081121 63 72 0.0 0.0 0.00 0.03 0.01 94 1010.6
20260906080900 63 72 0.0 0.0 0.00 0.03 0.01 93 1010.6
20260906080120 63 72 0.0 0.0 0.00 0.03 0.01 93 1010.6
20260906075923 63 72 0.0 0.0 0.00 0.03 0.01 93 1010.6
20260906075918 63 72 0.0 0.0 0.00 0.03 0.01 93 1010.7
20260906074619 63 72 0.0 0.0 0.00 0.03 0.01 94 1010.6
20260906074118 63 72 0.0 0.0 0.00 0.03 0.01 94 1010.6
20260906073616 64 72 0.0 0.0 0.00 0.03 0.01 94 1010.6
20260906073115 64 72 0.0 0.0 0.00 0.03 0.01 94 1010.7
20260906072614 64 72 0.0 0.0 0.00 0.03 0.01 93 1010.6
20260906072116 64 72 0.0 0.0 0.00 0.03 0.01 93 1010.6
20260906071615 64 72 0.0 0.0 0.00 0.03 0.01 93 1010.5
20260906071113 64 72 0.0 0.0 0.00 0.03 0.01 94 1010.5
20260906070611 64 72 0.0 0.0 0.00 0.03 0.01 94 1010.4
20260906070353 64 72 0.0 0.0 0.00 0.03 0.01 94 1010.5
20260906065850 64 72 0.0 0.0 0.00 0.03 0.01 94 1010.6
20260906065106 64 72 0.0 0.0 0.00 0.03 0.01 93 1010.5
20260906064603 64 72 0.0 0.0 0.00 0.03 0.01 93 1010.6
20260906064105 65 72 0.0 0.0 0.00 0.03 0.01 94 1010.5
20260906063605 65 72 0.0 0.0 0.00 0.03 0.01 94 1010.6
20260906063104 65 72 0.0 0.0 0.00 0.03 0.01 94 1010.4
20260906062603 65 72 0.0 0.0 0.01 0.03 0.01 94 1010.4
20260906062103 65 72 0.0 0.0 0.01 0.03 0.01 94 1010.5
20260906061601 65 72 0.0 0.0 0.01 0.03 0.01 94 1010.6
20260906061102 65 72 0.0 0.0 0.01 0.03 0.01 94 1010.6
20260906060840 65 72 0.0 0.0 0.01 0.03 0.01 94 1010.6
20260906055844 65 72 0.0 0.0 0.01 0.02 0.01 94 1010.5
20260906055103 65 72 0.0 0.0 0.01 0.02 0.01 94 1010.4
20260906054603 66 72 0.0 0.0 0.01 0.02 0.01 94 1010.5
20260906054104 66 72 0.0 0.0 0.01 0.02 0.01 94 1010.5
20260906053603 66 72 0.0 0.0 0.01 0.02 0.01 94 1010.5
20260906053102 66 72 0.0 0.0 0.01 0.02 0.01 94 1010.5
20260906052602 66 72 0.0 0.0 0.00 0.02 0.00 94 1010.5
20260906052102 66 72 0.0 0.0 0.00 0.02 0.00 94 1010.6
20260906051603 66 72 0.0 0.0 0.00 0.02 0.00 94 1010.6
20260906051104 66 72 0.0 0.0 0.00 0.02 0.00 94 1010.7
20260906050551 66 72 0.0 0.0 0.00 0.02 0.00 94 1010.6
20260906050052 66 72 0.0 0.0 0.00 0.02 0.00 93 1010.6
20260906045552 67 72 0.0 0.0 0.00 0.02 0.00 94 1010.6
20260906045047 67 72 0.0 0.0 0.00 0.02 0.00 94 1010.8
20260906044548 67 72 0.0 0.0 0.00 0.02 0.00 93 1010.7
20260906044048 67 72 0.0 0.0 0.00 0.02 0.00 93 1010.7
20260906043530 67 72 0.0 0.0 0.00 0.02 0.00 93 1010.8
20260906043314 67 72 0.0 0.0 0.00 0.02 0.00 93 1011.0
20260906042530 68 72 0.0 0.0 0.00 0.02 0.00 93 1010.9
20260906042032 68 72 0.0 0.0 0.00 0.02 0.00 93 1011.1
20260906041526 68 72 0.0 0.0 0.00 0.02 0.00 93 1011.0
20260906041026 68 72 0.0 0.0 0.00 0.02 0.00 93 1011.0
20260906040526 68 72 0.0 0.0 0.00 0.02 0.00 92 1010.9
20260906040024 69 72 0.0 0.0 0.00 0.02 0.00 92 1010.9
20260906035524 69 72 0.0 0.0 0.00 0.02 0.02 92 1010.9
20260906035306 69 72 0.0 0.0 0.00 0.03 0.02 92 1010.8
20260906034524 69 72 0.0 0.0 0.00 0.03 0.02 91 1010.8
20260906034304 69 72 0.0 0.0 0.00 0.03 0.02 91 1010.9
20260906033830 70 72 0.0 0.0 0.00 0.03 0.02 91 1010.9
20260906033540 70 72 0.0 0.0 0.00 0.03 0.02 91 1010.9
20260906032523 70 72 0.0 0.0 0.00 0.03 0.02 91 1011.0
20260906032023 71 72 0.0 0.0 0.00 0.03 0.02 91 1011.0
20260906031523 71 72 0.0 0.0 0.00 0.03 0.02 91 1010.9
20260906031023 71 72 0.0 0.0 0.00 0.03 0.02 91 1011.0
20260906030523 71 72 0.0 0.0 0.00 0.03 0.02 91 1010.9
20260906030023 71 72 0.0 0.0 0.00 0.03 0.02 91 1011.0
20260906025523 71 72 0.0 0.0 0.00 0.03 0.02 91 1010.9
20260906025044 71 72 0.0 0.0 0.00 0.03 0.02 91 1010.8
20260906025036 71 72 0.0 0.0 0.00 0.03 0.02 91 1010.8
20260906024022 71 72 0.0 0.0 0.00 0.03 0.02 91 1010.8
20260906023522 71 72 0.0 0.0 0.00 0.03 0.02 91 1010.8
20260906023021 71 72 0.0 0.0 0.00 0.03 0.02 91 1010.8
20260906022521 71 72 0.0 0.0 0.00 0.03 0.02 92 1010.7
20260906022023 71 72 0.0 0.0 0.00 0.03 0.02 92 1010.6
20260906021523 71 72 0.0 0.0 0.00 0.03 0.02 92 1010.8
20260906021022 72 72 0.0 0.0 0.00 0.03 0.02 92 1010.7
20260906020521 72 72 0.0 0.0 0.00 0.03 0.02 92 1010.6
20260906020259 72 72 0.0 0.0 0.00 0.03 0.02 92 1010.7
20260906015521 72 72 0.0 0.0 0.00 0.03 0.02 92 1010.6
20260906015258 72 72 0.0 0.0 0.00 0.04 0.02 92 1010.6
20260906014522 72 72 0.0 0.0 0.00 0.04 0.02 91 1010.5
20260906014021 72 72 0.0 0.0 0.00 0.04 0.02 92 1010.5
20260906013520 72 72 0.0 0.0 0.00 0.04 0.02 91 1010.5
20260906013020 72 72 0.0 0.0 0.00 0.04 0.02 91 1010.3
20260906012824 72 72 0.0 0.0 0.00 0.04 0.02 92 1010.2
20260906012819 72 72 0.0 0.0 0.00 0.04 0.02 92 1010.3
20260906011520 72 72 0.0 0.0 0.00 0.04 0.02 92 1010.2
20260906011019 72 72 0.0 0.0 0.00 0.04 0.02 92 1010.2
20260906010520 73 72 0.0 0.0 0.00 0.04 0.02 92 1010.1
20260906010020 73 72 0.0 0.0 0.00 0.04 0.02 92 1010.0
20260906005520 73 72 0.0 0.0 0.00 0.04 0.02 92 1009.8
20260906005020 73 72 0.0 0.0 0.00 0.04 0.02 92 1009.8
20260906004519 73 72 0.0 0.0 0.00 0.04 0.02 92 1009.8
20260906004259 73 72 0.0 0.0 0.00 0.04 0.02 92 1009.6
20260906003519 73 72 0.0 0.0 0.00 0.04 0.02 92 1009.6
20260906003019 74 72 0.0 0.0 0.00 0.04 0.02 92 1009.6
20260906002758 74 72 0.0 0.0 0.00 0.04 0.02 92 1009.6
20260906002019 74 72 0.0 0.0 0.00 0.04 0.02 91 1009.5
20260906001518 74 72 0.0 0.0 0.00 0.04 0.02 91 1009.5
20260906001014 74 72 0.0 0.0 0.00 0.04 0.02 91 1009.5
20260906000515 74 72 0.0 0.0 0.00 0.04 0.02 91 1009.6
20260906000256 74 72 0.0 0.0 0.00 0.04 0.02 90 1009.4
20260905235513 74 72 0.0 0.0 0.00 0.04 0.02 90 1009.3
20260905235013 75 72 0.0 0.0 0.00 0.04 0.02 89 1009.4
20260905234515 75 72 0.0 0.0 0.00 0.04 0.02 89 1009.5
20260905234037 75 72 0.0 0.0 0.00 0.04 0.02 88 1009.4
20260905234028 75 72 0.0 0.0 0.00 0.04 0.02 89 1009.5
20260905233011 76 72 0.0 0.0 0.00 0.04 0.02 88 1009.2
20260905232507 76 72 0.0 0.0 0.00 0.05 0.02 87 1009.2
20260905232004 76 72 0.0 0.0 0.00 0.05 0.02 87 1009.2
20260905231502 76 72 0.0 0.0 0.00 0.05 0.02 86 1009.1
20260905231002 76 72 0.0 0.0 0.00 0.05 0.02 86 1009.0
20260905230501 76 72 0.0 0.0 0.00 0.05 0.02 85 1009.1
20260905230002 76 72 0.0 0.0 0.00 0.05 0.02 84 1009.1
20260905225502 77 72 0.0 0.0 0.00 0.05 0.02 83 1009.1
20260905225004 77 72 0.0 0.0 0.00 0.05 0.02 83 1009.1
20260905224504 77 72 0.0 0.0 0.00 0.05 0.02 83 1009.0
20260905224003 77 72 0.0 0.0 0.00 0.05 0.02 82 1009.0
20260905223502 77 72 0.0 0.0 0.00 0.05 0.02 83 1009.0
20260905223005 77 72 0.0 0.0 0.00 0.05 0.02 83 1009.0
20260905222503 77 72 0.0 0.0 0.00 0.05 0.02 82 1009.0
20260905222003 77 72 0.0 0.0 0.00 0.05 0.02 82 1009.0
20260905221503 78 72 0.0 0.0 0.00 0.05 0.02 81 1009.0
20260905221003 78 72 0.0 0.0 0.00 0.05 0.02 81 1009.1
20260905220505 78 72 0.0 0.0 0.00 0.05 0.02 80 1009.1
20260905220241 78 72 0.0 0.0 0.00 0.05 0.02 80 1008.9
20260905215741 78 72 0.0 0.0 0.00 0.05 0.02 79 1008.8
20260905214956 78 72 0.0 2.0 0.00 0.06 0.02 79 1008.8
20260905214447 78 72 0.0 2.0 0.00 0.06 0.02 80 1008.8
20260905213946 78 72 0.0 1.0 0.00 0.06 0.02 82 1008.8
20260905213444 78 72 0.0 1.0 0.00 0.06 0.02 83 1008.7
20260905212939 78 72 0.0 1.0 0.00 0.06 0.02 83 1008.6
20260905212441 78 73 0.0 2.0 0.00 0.06 0.02 83 1008.4
20260905211940 78 73 0.0 2.0 0.00 0.06 0.02 83 1008.4
20260905211440 78 73 0.0 0.0 0.00 0.06 0.02 83 1008.4
20260905210941 79 73 0.0 1.0 0.00 0.06 0.02 81 1008.3
20260905210723 79 73 0.0 1.0 0.00 0.06 0.02 82 1008.4
20260905205939 79 73 0.0 0.0 0.00 0.06 0.02 81 1008.2
20260905205430 79 73 0.0 0.0 0.00 0.06 0.02 80 1008.3
20260905204931 79 73 0.0 2.0 0.00 0.06 0.02 78 1008.3
20260905204430 80 73 1.0 2.0 0.00 0.06 0.02 75 1008.5
20260905203930 80 279 0.0 2.0 0.00 0.06 0.02 74 1008.4
20260905203427 80 51 0.0 4.0 0.00 0.06 0.02 75 1008.4
20260905202926 80 51 2.0 4.0 0.00 0.06 0.02 74 1008.3
20260905202424 80 66 1.0 3.0 0.00 0.06 0.02 77 1008.4
20260905201923 80 149 0.0 2.0 0.00 0.07 0.02 75 1008.4
20260905201423 81 48 0.0 4.0 0.00 0.07 0.02 75 1008.5
20260905200923 80 48 1.0 4.0 0.00 0.07 0.02 74 1008.5
20260905200729 81 235 0.0 3.0 0.00 0.07 0.02 75 1008.6
20260905200438 81 251 0.0 3.0 0.00 0.07 0.02 75 1008.5
20260905195418 81 72 1.0 6.0 0.00 0.07 0.02 74 1008.5
20260905194918 82 72 1.0 6.0 0.00 0.07 0.02 72 1008.5
20260905194415 82 93 2.0 6.0 0.00 0.07 0.02 72 1008.7
20260905193913 81 68 2.0 6.0 0.00 0.07 0.02 73 1008.7
20260905193414 81 56 1.0 4.0 0.00 0.07 0.02 75 1008.7
20260905192914 81 310 0.0 1.0 0.00 0.07 0.02 75 1008.7
20260905192413 81 309 0.0 2.0 0.00 0.08 0.02 75 1008.8
20260905191914 82 306 1.0 3.0 0.00 0.08 0.02 73 1008.8
20260905191654 81 337 1.0 3.0 0.00 0.08 0.02 73 1008.7
20260905190913 80 37 0.0 4.0 0.00 0.08 0.02 76 1008.8
20260905190412 81 37 0.0 5.0 0.00 0.08 0.02 74 1008.8
20260905185912 81 245 2.0 5.0 0.00 0.08 0.02 74 1008.8
20260905185413 81 54 2.0 5.0 0.00 0.08 0.02 75 1009.0
20260905184911 80 68 1.0 3.0 0.00 0.08 0.02 75 1009.0
20260905184411 80 68 2.0 3.0 0.00 0.08 0.02 75 1009.1
20260905183911 81 203 1.0 3.0 0.00 0.08 0.02 76 1009.1
20260905183412 80 54 1.0 3.0 0.00 0.08 0.02 74 1009.0
20260905182911 80 28 0.0 4.0 0.00 0.08 0.02 76 1009.1
20260905182412 80 32 3.0 4.0 0.01 0.09 0.02 76 1009.1
20260905182218 81 48 1.0 6.0 0.01 0.09 0.02 74 1009.2
20260905181928 81 10 1.0 3.0 0.01 0.09 0.02 76 1009.3
20260905180910 80 45 1.0 6.0 0.01 0.09 0.02 76 1009.3
20260905180411 80 51 2.0 4.0 0.01 0.09 0.02 75 1009.3
20260905180151 80 282 1.0 5.0 0.01 0.08 0.02 75 1009.4
20260905175410 80 278 1.0 5.0 0.01 0.08 0.02 78 1009.5
20260905175143 80 79 1.0 2.0 0.01 0.09 0.02 79 1009.5
20260905174404 80 38 1.0 2.0 0.01 0.09 0.02 79 1009.5
20260905174139 79 38 1.0 2.0 0.01 0.09 0.02 78 1009.7
20260905173402 79 34 0.0 2.0 0.01 0.09 0.02 79 1009.9
20260905173143 79 34 0.0 0.0 0.01 0.09 0.02 78 1009.8
20260905172645 79 34 0.0 0.0 0.00 0.09 0.01 77 1009.9